Miscellaneous Local Product
Issued by NWS Hastings, NE

Home | Current Version | Previous Version | Text Only | Print | Product List | Glossary Off
Versions: 1 2 3 4 5 6 7 8 9 10 11 12 13 14 15 16 17 18 19 20 21 22 23 24 25 26 27 28 29 30 31 32 33 34 35 36 37 38 39 40 41 42 43 44 45 46 47 48 49 50

000
AXUS43 KGID 191002
MISGRI

GID CWA HOURLY WEATHER ROUNDUP
NATIONAL WEATHER SERVICE HASTINGS NE
400 AM CST SUN FEB 19 2017

NOTE: "FAIR" INDICATES FEW OR NO CLOUDS BELOW 12,000 FEET WITH NO
SIGNIFICANT WEATHER AND/OR OBSTRUCTIONS TO VISIBILITY.

...SOUTH CENTRAL NEBRASKA...

CITY           SKY/WX    TMP DP  RH WIND       PRES   REMARKS
GRAND ISLAND   PTCLDY    50  45  83 S14       29.80S
HASTINGS       PTCLDY    49  44  83 S9        29.82S
KEARNEY        PTCLDY    45  37  76 S8        29.79F
ORD            CLOUDY    36  30  79 SE5       29.76S WCI  32
YORK           CLOUDY    45  39  81 S8        29.83R
AURORA         PTCLDY    46  41  81 S10       29.81S
LEXINGTON      CLOUDY    45  37  75 S14       29.77S
HOLDREGE       PTCLDY    43  39  85 S6        29.78F
HEBRON         CLOUDY    45  42  90 CALM      29.84F

...NEBRASKA PANHANDLE...

CITY           SKY/WX    TMP DP  RH WIND       PRES   REMARKS
CHADRON        CLOUDY    46  31  55 SW5       29.60S
ALLIANCE       CLOUDY    40  32  73 S8        29.62F WCI  34
SCOTTSBLUFF    CLOUDY    38  29  70 W5        29.63S WCI  34
SIDNEY         CLOUDY    46  26  45 SW6       29.63F

...WESTERN AND NORTH CENTRAL NEBRASKA...

CITY           SKY/WX    TMP DP  RH WIND       PRES   REMARKS
VALENTINE      PTCLDY    46  34  62 VRB3      29.68F
AINSWORTH      PTCLDY    43  35  72 S13       29.70S
ONEILL         PTCLDY    40  33  74 SE6       29.74F
BROKEN BOW     CLOUDY    34  30  85 CALM      29.75S
IMPERIAL       CLOUDY    48  32  53 SE14      29.69F
NORTH PLATTE   PTCLDY    48  35  60 SE7       29.72F
MCCOOK         CLOUDY    48  37  65 S8        29.74F

...EASTERN NEBRASKA...

CITY           SKY/WX    TMP DP  RH WIND       PRES   REMARKS
NORFOLK        PTCLDY    46  36  68 S8        29.79R
SO SIOUX CITY  PTCLDY    37  32  82 SE8       29.82S WCI  31
TEKAMAH        CLOUDY    37  32  82 S6        29.84S WCI  32
COLUMBUS       PTCLDY    36  30  80 CALM      29.82R
ALBION         PTCLDY    41  33  74 SE7       29.79S
OMAHA EPPLEY   CLOUDY    45  33  63 S7        29.85R
OFFUTT AFB     CLOUDY    38  35  89 CALM      29.85R
MILLARD        CLOUDY    41  35  78 CALM      29.86R
LINCOLN        PTCLDY    36  30  79 CALM      29.86R
NEBRASKA CITY  CLOUDY    44  35  73 SW9       29.87R
BEATRICE       PTCLDY    42  38  88 CALM      29.87R
FALLS CITY     PTCLDY    48  45  89 S8        29.88R

...NORTHERN KANSAS...

CITY           SKY/WX    TMP DP  RH WIND       PRES   REMARKS
GOODLAND       CLOUDY    46  34  62 S20       29.69F
HILL CITY      PTCLDY    48  44  86 SW6       29.80S
NORTON         SUNNY     48  39  71 S8        29.78S
PHILLIPSBURG   CLEAR     45  45 100 CALM      29.81S
SMITH CENTER   CLEAR     45  43  93 SE8       29.82F
HAYS           CLOUDY    44  43  96 SE3       29.82F FOG
RUSSELL        PTCLDY    46  44  93 S12       29.81F FOG
CONCORDIA      PTCLDY    48  47  96 S12       29.85S
SALINA         PTCLDY    47  44  90 S8        29.86F
TOPEKA         PTCLDY    46  43  89 W3        29.90R



USA.gov is the U.S. government's official web portal to all federal, state and local government web resources and services.